Regional Weather Roundup
Issued by NWS Tiyan, Guam

Home | Current Version | Previous Version | Text Only | Print | Product List | Glossary On
Versions: 1 2 3 4 5 6 7 8 9 10 11 12 13 14 15 16 17 18 19 20 21 22 23 24 25 26 27 28 29 30 31 32 33 34 35 36 37 38 39 40 41 42 43 44 45 46 47 48 49 50
000
ASGM40 PGUM 210512
RWRGUM
WEATHER ROUNDUP FOR THE MARIANAS
NATIONAL WEATHER SERVICE TIYAN GU
300 PM CHST SAT JAN 21 2017

GUZ001>004-210600-
MARIANA ISLANDS-

CITY           SKY/WX    TMP DP  RH WIND       PRES   REMARKS
GUAM AIRPORT   PTSUNNY   84  75  74 NE14      29.92F HX  92
ANDERSEN AFB   MOSUNNY   82  73  74 NE16      29.94F
ROTA AIRPORT   LGT RAIN  81  73  78 NE16      29.94F
TINIAN AP      MOSUNNY   86  73  66 N15       29.93F HX  93
SAIPAN AP      MOSUNNY   84  72  65 NE16      29.94S

$$




USA.gov is the U.S. government's official web portal to all federal, state and local government web resources and services.